#timestamp,LO_Frequency,Hit,StdDev 
1559253615.9,286046999.4,N
1559253635.7,286046996.8,N
1559253655.6,286046997.6,N
1559253675.4,286046993.5,Y
1559253695.2,286046993.5,P
1559253715.1,286046996.3,N
1559253716.0,286046996.3,N
1559253735.8,286046994.9,Y
1559253755.7,286047001.3,P
1559253775.5,286047000.1,N
1559253795.3,286047000.6,N
1559253815.2,286047000.9,N
1559253835.0,286046998.3,N
1559253835.9,286046998.3,N
1559253855.7,286047000.4,N
1559253875.6,286047002.6,N
1559253895.4,286047002.6,N
1559253915.3,286047002.5,N
1559253935.1,286047001.7,N
1559253936.0,286047001.7,N
1559253955.8,286047002.2,N
1559253975.7,286047003.8,N
1559253995.5,286047006.0,Y
1559254015.3,286047003.4,P
1559254035.2,286047001.5,N
1559254055.0,286047001.0,N
1559254055.9,286047001.0,N
1559254075.8,286047000.8,N
1559254095.6,286046998.2,N
1559254115.4,286047000.1,N
1559254135.3,286047004.1,Y
1559254155.1,286047004.0,P
1559254175.8,286047004.2,N
1559254195.7,286047003.5,N
1559254215.5,286047005.6,Y
1559254235.4,286047002.1,P
1559254255.2,286047002.1,P
1559254275.0,286046998.8,N
1559254275.9,286046998.8,N
1559254295.8,286046995.0,N
1559254315.6,286046993.9,N
1559254335.4,286046992.0,N
1559254355.3,286046994.8,N
1559254375.1,286046998.0,N
1559254395.9,286046995.8,N
1559254415.7,286046993.4,N
1559254435.5,286046993.3,N
1559254455.4,286046991.8,N
1559254475.2,286046991.9,N
1559254495.0,286046992.7,N
1559254495.9,286046992.7,N
1559254515.8,286046993.0,N
1559254535.6,286046992.3,N
1559254555.5,286046994.1,N
1559254575.3,286046994.6,N
1559254595.1,286046995.8,N
1559254615.9,286046997.3,N
1559254635.7,286046998.0,N
1559254655.5,286046996.4,N
1559254675.4,286046992.8,N
1559254695.2,286046990.1,Y
1559254715.1,286046994.0,P
1559254716.0,286046994.0,P
1559254735.8,286046993.4,P
1559254755.6,286046996.2,Y
1559254775.5,286047005.2,P
1559254795.3,286047008.9,N
1559254815.2,286047007.9,N
1559254835.9,286047009.4,N
1559254855.7,286047010.8,N
1559254875.6,286047008.2,N
1559254895.4,286047008.6,N
1559254915.2,286047010.6,N
1559254935.1,286047011.2,N
1559254936.0,286047011.2,N
1559254955.8,286047010.9,N
1559254975.7,286047010.6,N
1559254995.5,286047006.7,N
1559255015.3,286047009.6,N
1559255035.2,286047014.0,Y
1559255055.0,286047003.4,P
1559255055.9,286047003.4,N
1559255075.7,286047003.4,N
1559255095.6,286047002.0,N
1559255115.4,286046998.9,N
1559255135.3,286046994.2,N
1559255155.1,286046993.0,N
1559255156.0,286046993.0,N
1559255175.8,286046993.9,N
1559255195.7,286046995.7,N
1559255215.5,286046996.7,N
1559255235.3,286047002.3,N
1559255255.2,286047001.5,N
1559255275.0,286047005.0,N
1559255275.9,286047005.0,N
1559255295.8,286047006.9,N
1559255315.6,286047009.1,N
1559255335.4,286047004.8,N
1559255355.3,286047001.9,N
1559255375.1,286046997.8,N
1559255395.8,286046993.8,N
1559255415.7,286046992.9,N
1559255435.5,286046988.8,N
1559255455.4,286046988.1,N
1559255475.2,286046985.4,N
1559255495.0,286046984.6,N
1559255495.9,286046984.6,N
1559255515.8,286046982.2,N
1559255535.6,286046983.8,N
1559255555.4,286046987.2,N
1559255575.3,286046991.6,N
1559255595.1,286046990.5,N
1559255615.9,286046991.7,N
1559255635.7,286046996.4,N
1559255655.5,286046997.0,N
1559255675.4,286046996.7,N
1559255695.2,286046998.4,N
1559255715.0,286047002.4,N
1559255715.9,286047002.4,N
1559255735.8,286047002.0,N
1559255755.6,286047005.8,N
1559255775.5,286047005.5,N
1559255795.3,286047005.4,N
1559255815.1,286047003.4,N
1559255835.9,286047003.4,N
1559255855.7,286047007.6,N
1559255875.5,286047007.2,N
1559255895.4,286047006.5,N
1559255915.2,286047007.4,N
1559255935.1,286047005.6,N
1559255936.0,286047005.6,N
1559255955.8,286047006.9,N
1559255975.6,286047006.7,N
1559255995.5,286047006.5,N
1559256015.3,286047006.1,N
1559256035.2,286047007.6,N
1559256055.9,286047005.4,N
1559256075.7,286047004.5,N
1559256095.6,286047001.3,N
1559256115.4,286046999.1,N
1559256135.2,286046996.2,N
1559256155.1,286046992.5,N
1559256156.0,286046992.5,N
1559256175.8,286046989.2,N
1559256195.7,286046985.6,N
1559256215.5,286046985.1,N
1559256235.3,286046984.6,N
1559256255.2,286046984.9,N
1559256275.0,286046985.0,N
1559256275.9,286046985.0,N
1559256295.8,286046982.3,N
1559256315.6,286046985.2,N
1559256335.4,286046982.9,N
1559256355.3,286046983.1,N
1559256375.1,286046981.5,N
1559256395.8,286046981.4,N
1559256415.7,286046980.5,N
1559256435.5,286046983.2,N
1559256455.4,286046982.2,N
1559256475.2,286046982.9,N
1559256495.0,286046979.3,N
1559256495.9,286046979.3,N
1559256515.8,286046977.6,N
1559256535.6,286046980.0,N
1559256555.4,286046978.2,N
1559256575.3,286046977.0,N
1559256595.1,286046977.1,N
1559256615.9,286046972.1,Y
1559256635.7,286046985.0,P
1559256655.5,286046983.7,P
1559256675.4,286046989.7,P
1559256695.2,286046994.7,N
1559256715.0,286046995.1,N
1559256716.0,286046995.1,N
1559256735.8,286046998.4,N
1559256755.6,286047001.6,N
1559256775.5,286047005.7,N
1559256795.3,286047007.7,N
1559256815.1,286047009.6,N
1559256835.9,286047012.0,N
1559256855.7,286047015.5,N
1559256875.5,286047013.5,N
1559256895.4,286047008.7,N
1559256915.2,286047009.2,N
1559256935.1,286047007.4,N
1559256936.0,286047007.4,N
1559256955.8,286047003.1,N
1559256975.6,286047005.4,N
1559256995.5,286047002.5,N
1559257015.3,286046999.5,N
1559257035.2,286046996.7,N
1559257055.9,286046996.7,N
1559257075.7,286047002.7,N
1559257095.6,286047003.4,N
1559257115.4,286047005.0,N
1559257135.2,286047010.3,N
1559257155.1,286047010.0,N
1559257156.0,286047010.0,N
1559257175.8,286047011.9,N
1559257195.7,286047009.0,N
